This demonstration page uses our WeatherBlox Daily Observations layout. Learn more.

Left ArrowRight Arrow

Hourly Observations for September 6, 2021

Temp ( °F °C ) Dew Point ( °F °C ) Humidity (%) Winds ( mph kmh ) Pressure ( in mb ) Visibility ( mi km ) Precip ( " mm )
12:15 am 00:15 Cloudy 70 21 70 21 100 100 WNW 3 6 29.85 1011 10 16 N/A
12:35 am 00:35 Cloudy 70 21 70 21 100 100 W 3 6 29.85 1011 10 16 N/A
12:55 am 00:55 Cloudy 70 21 70 21 100 100 N N/A 29.86 1011 10 16 N/A
1:15 am 01:15 Cloudy with Light Rain 70 21 70 21 100 100 N N/A 29.86 1011 10 16 N/A
1:35 am 01:35 Cloudy 70 21 70 21 100 100 WNW 5 7 29.86 1011 10 16 N/A
1:55 am 01:55 Cloudy 70 21 70 21 100 100 WNW 8 13 29.87 1012 10 16 N/A
2:15 am 02:15 Cloudy 70 21 68 20 94 94 WNW 6 9 29.87 1012 10 16 N/A
2:35 am 02:35 Cloudy 70 21 68 20 94 94 N N/A 29.86 1011 10 16 N/A
2:55 am 02:55 Cloudy 70 21 68 20 94 94 W 3 6 29.87 1012 10 16 N/A
3:15 am 03:15 Cloudy 70 21 68 20 94 94 WNW 6 9 29.86 1011 10 16 N/A
3:35 am 03:35 Cloudy 70 21 68 20 94 94 W 5 7 29.86 1011 10 16 N/A
3:55 am 03:55 Cloudy 70 21 68 20 94 94 WNW 3 6 29.86 1011 10 16 N/A
4:15 am 04:15 Cloudy 70 21 68 20 94 94 W 3 6 29.86 1011 10 16 N/A
4:35 am 04:35 Cloudy 70 21 68 20 94 94 NW 3 6 29.86 1011 10 16 N/A
4:55 am 04:55 Cloudy 70 21 68 20 94 94 WNW 7 11 29.87 1012 10 16 N/A
5:15 am 05:15 Cloudy 70 21 68 20 94 94 N N/A 29.87 1012 10 16 N/A
5:35 am 05:35 Cloudy 70 21 68 20 94 94 NW 6 9 29.87 1012 10 16 N/A
5:55 am 05:55 Cloudy 70 21 68 20 94 94 NW 7 11 29.87 1012 10 16 N/A
6:15 am 06:15 Cloudy 68 20 68 20 100 100 WNW 6 9 29.88 1012 10 16 N/A
6:35 am 06:35 Cloudy 68 20 66 19 94 94 WNW 10 17 29.89 1012 10 16 N/A
6:55 am 06:55 Cloudy 68 20 66 19 94 94 NW 9 15 29.89 1012 10 16 N/A
7:15 am 07:15 Cloudy 68 20 64 18 88 88 NW 7 11 29.90 1013 10 16 N/A
7:35 am 07:35 Partly Cloudy 68 20 64 18 88 88 N N/A 29.91 1013 10 16 N/A
7:55 am 07:55 Sunny 70 21 64 18 83 83 SW 3 6 29.92 1013 10 16 N/A
8:15 am 08:15 Sunny 70 21 64 18 83 83 WNW 3 6 29.92 1013 10 16 N/A
8:35 am 08:35 Sunny 72 22 63 17 73 73 WNW 5 7 29.92 1013 10 16 N/A
8:55 am 08:55 Sunny 72 22 63 17 73 73 NW 8 13 29.92 1013 10 16 N/A
9:15 am 09:15 Sunny 73 23 63 17 69 69 W 9 15 29.93 1013 10 16 N/A
9:35 am 09:35 Sunny 73 23 63 17 69 69 W 5 7 29.94 1014 10 16 N/A
9:55 am 09:55 Sunny 75 24 63 17 65 65 WNW 10 17 29.94 1014 10 16 N/A
10:15 am 10:15 Sunny 75 24 63 17 65 65 NNW 7 11 29.94 1014 10 16 N/A
10:35 am 10:35 Sunny 77 25 63 17 61 61 WNW 3 6 29.94 1014 10 16 N/A
10:55 am 10:55 Sunny 77 25 61 16 57 57 NNW 6 9 29.94 1014 10 16 N/A
11:15 am 11:15 Sunny 79 26 61 16 54 54 NW 5 7 29.93 1014 10 16 N/A
11:35 am 11:35 Sunny 81 27 61 16 51 51 WNW 8 13 29.93 1014 10 16 N/A
11:55 am 11:55 Sunny 79 26 59 15 51 51 WNW 7 11 29.93 1014 10 16 N/A
12:15 pm 12:15 Sunny 81 27 61 16 51 51 WNW 8 13 29.92 1013 10 16 N/A
12:35 pm 12:35 Sunny 81 27 59 15 48 48 NW 13 20 29.91 1013 10 16 N/A
12:55 pm 12:55 Sunny 81 27 59 15 48 48 NNW 15 24 29.91 1013 10 16 N/A
1:15 pm 13:15 Sunny 81 27 59 15 48 48 NW 12 19 29.91 1013 10 16 N/A
1:35 pm 13:35 Sunny 82 28 59 15 45 45 WNW 12 19 29.91 1013 10 16 N/A
1:55 pm 13:55 Partly Cloudy 82 28 59 15 45 45 NW 14 22 29.90 1013 10 16 N/A
2:15 pm 14:15 Partly Cloudy 82 28 59 15 45 45 WNW 12 19 29.90 1013 10 16 N/A
2:35 pm 14:35 Sunny 82 28 59 15 45 45 WNW 13 20 29.89 1012 10 16 N/A
2:55 pm 14:55 Partly Cloudy 82 28 59 15 45 45 WNW 15 24 29.89 1012 10 16 N/A
3:15 pm 15:15 Sunny 82 28 59 15 45 45 W 10 17 29.88 1012 10 16 N/A
3:35 pm 15:35 Sunny 82 28 59 15 45 45 NW 10 17 29.88 1012 10 16 N/A
3:55 pm 15:55 Partly Cloudy 84 29 59 15 43 43 W 14 22 29.87 1011 10 16 N/A
4:15 pm 16:15 Partly Cloudy 84 29 59 15 43 43 W 10 17 29.87 1011 10 16 N/A
4:35 pm 16:35 Partly Cloudy 82 28 59 15 45 45 WNW 9 15 29.87 1012 10 16 N/A
4:55 pm 16:55 Partly Cloudy 82 28 59 15 45 45 WNW 13 20 29.87 1012 10 16 N/A
5:15 pm 17:15 Partly Cloudy 82 28 59 15 45 45 W 8 13 29.87 1012 10 16 N/A
5:35 pm 17:35 Sunny 82 28 59 15 45 45 W 7 11 29.87 1012 10 16 N/A
5:55 pm 17:55 Sunny 82 28 61 16 48 48 W 6 9 29.87 1012 10 16 N/A
6:15 pm 18:15 Sunny 81 27 59 15 48 48 WNW 7 11 29.87 1012 10 16 N/A
6:35 pm 18:35 Sunny 81 27 61 16 51 51 W 5 7 29.88 1012 10 16 N/A
6:55 pm 18:55 Sunny 79 26 61 16 54 54 W 5 7 29.88 1012 10 16 N/A
7:15 pm 19:15 Sunny 77 25 59 15 54 54 W 3 6 29.88 1012 10 16 N/A
7:35 pm 19:35 Clear 77 25 61 16 57 57 W 3 6 29.88 1012 10 16 N/A
7:55 pm 19:55 Clear 73 23 61 16 65 65 W 5 7 29.90 1012 10 16 N/A
8:15 pm 20:15 Clear 72 22 61 16 69 69 WNW 6 9 29.91 1013 10 16 N/A
8:35 pm 20:35 Clear 72 22 61 16 69 69 WNW 3 6 29.92 1013 10 16 N/A
8:55 pm 20:55 Clear 70 21 61 16 73 73 N N/A 29.92 1013 10 16 N/A
9:15 pm 21:15 Clear 70 21 61 16 73 73 W 5 7 29.93 1014 10 16 N/A
9:35 pm 21:35 Clear 70 21 61 16 73 73 W 3 6 29.94 1014 10 16 N/A
9:55 pm 21:55 Clear 68 20 61 16 78 78 WSW 3 6 29.94 1014 10 16 N/A
10:15 pm 22:15 Clear 68 20 61 16 78 78 WSW 6 9 29.95 1014 10 16 N/A
10:35 pm 22:35 Clear 68 20 61 16 78 78 W 3 6 29.95 1014 10 16 N/A
10:55 pm 22:55 Clear 68 20 61 16 78 78 W 3 6 29.95 1014 10 16 N/A
11:15 pm 23:15 Clear 66 19 61 16 83 83 SW 3 6 29.96 1015 10 16 N/A
11:35 pm 23:35 Clear 64 18 61 16 88 88 WSW 5 7 29.96 1015 10 16 N/A
11:55 pm 23:55 Clear 66 19 61 16 83 83 WSW 6 9 29.96 1015 10 16 N/A

Powered by AerisWeather